Weather observations for the past three days for
Wilkes-Barre - Scranton, Wilkes-Barre / Scranton International Airport
Metric (Imperial)
Date Time (edt) Wind (kph) Vis. (km) Weather Sky Cond. Temperature (ºC) Relative Humidity Wind Chill (°C) Heat Index (°C) Pressure Precipitation (cm)
Air Dwpt 6 hour altimeter (cm) sea level (mb) 1 hr 3 hr 6 hr
Max. Min.
21 11:54 W 19 G 30 14.48 Fair CLR 27.8 15 46% 28 76.17 1014.6
21 10:54 W 17 14.48 Fair CLR 26.1 16.1 54% 27 76.2 1015.0
21 09:54 SW 13 14.48 Fair CLR 23.9 15.6 60% 25 76.23 1015.3
21 08:54 W 7 12.87 Fair CLR 22.2 15.6 66% 76.25 1015.7
21 07:54 Calm 11.27 Fair CLR 20 15.6 20 15 76% 76.25 1015.9
21 06:54 Calm 11.27 Fair CLR 16.7 14.4 86% 76.25 1015.6
21 05:54 Calm 11.27 Fair CLR 15 13.3 90% 76.17 1014.6
21 04:54 Calm 12.87 Fair CLR 16.1 13.9 87% 76.12 1014.1
21 03:54 SE 6 14.48 Fair CLR 16.1 13.9 87% 76.15 1014.3
21 02:54 Calm 14.48 Fair CLR 16.7 14.4 86% 76.12 1014.1
21 01:54 Calm 14.48 Fair CLR 17.2 14.4 25 16.7 84% 76.12 1014.1
21 00:54 Calm 14.48 Fair CLR 17.2 15 87% 76.15 1014.2
20 23:54 Calm 14.48 Fair CLR 18.3 15.6 84% 76.15 1014.5
20 22:54 Calm 14.48 Fair CLR 20 15.6 76% 76.17 1014.7
20 21:54 W 7 14.48 Fair CLR 22.8 15.6 64% 76.17 1014.7
20 20:54 S 9 16.09 Fair CLR 23.9 15.6 60% 25 76.15 1014.3
20 19:54 Calm 14.48 Fair CLR 25.6 15 29.4 25 52% 26 76.1 1013.7
20 18:54 W 7 16.09 Fair CLR 27.8 13.3 41% 28 76.07 1013.4
20 17:54 N 7 16.09 Fair CLR 28.9 12.2 36% 28 76.07 1013.4
20 16:54 N 6 16.09 Fair CLR 29.4 12.8 36% 29 76.12 1014.0
20 15:54 NW 9 16.09 Fair CLR 28.9 12.8 37% 28 76.15 1014.3
20 14:54 SW 7 16.09 Fair CLR 27.2 11.1 37% 27 76.17 1014.8
20 13:54 Calm 16.09 Fair CLR 27.8 11.7 27.8 17.8 37% 27 76.2 1015.1
20 12:54 Calm 16.09 Fair CLR 26.7 15.6 51% 27 76.23 1015.4
20 11:54 Calm 14.48 Fair CLR 25 15.6 56% 26 76.28 1016.1
20 10:54 Vrbl 7 12.87 Fair CLR 22.8 16.1 66% 76.3 1016.6
20 09:54 S 6 12.87 Fair CLR 20.6 15 70% 76.33 1016.9
20 08:54 W 6 12.87 Fair CLR 19.4 14.4 73% 76.33 1017.1
20 07:54 Calm 14.48 Fair CLR 17.2 13.9 17.8 13.9 81% 76.35 1017.1
20 06:54 Calm 14.48 Fair CLR 15 12.8 87% 76.3 1016.4
20 05:54 SE 6 14.48 Fair CLR 13.9 12.2 90% 76.25 1015.9
20 04:54 E 7 16.09 Fair CLR 14.4 12.2 87% 76.2 1015.2
20 03:54 E 7 16.09 Fair CLR 15 12.8 87% 76.23 1015.5
20 02:54 Calm 16.09 Fair CLR 15 12.8 87% 76.25 1015.9
20 01:54 NE 6 16.09 Fair CLR 16.7 13.3 23.9 16.7 80% 76.23 1015.6
20 00:54 Calm 16.09 Fair CLR 17.2 13.9 81% 76.23 1015.6
19 23:54 E 7 14.48 Fair CLR 17.8 14.4 81% 76.23 1015.5
19 22:54 E 6 16.09 Fair CLR 18.3 13.9 76% 76.23 1015.6
19 21:54 E 9 16.09 Fair CLR 19.4 15 76% 76.17 1015.0
19 20:54 E 6 16.09 Fair CLR 19.4 15 76% 76.15 1014.5
19 19:54 NW 7 14.48 Fair CLR 24.4 13.9 26.1 23.3 52% 26 76.1 1013.8
19 18:54 Calm 14.48 Mostly Cloudy BKN075 25.6 14.4 50% 26 76.1 1013.7
19 17:54 Calm 14.48 Partly Cloudy SCT070 25.6 14.4 50% 26 76.1 1013.7
19 16:54 E 7 16.09 A Few Clouds FEW043 25 13.9 50% 26 76.1 1013.7
19 15:54 Calm 16.09 Overcast OVC065 23.9 13.9 54% 25 76.1 1013.9
19 14:54 NE 6 14.48 Overcast FEW037 OVC065 23.9 14.4 55% 25 76.15 1014.4
19 13:54 W 9 14.48 Mostly Cloudy SCT032 SCT050 BKN065 23.3 14.4 24.4 16.7 57% 76.15 1014.6
19 12:54 Calm 14.48 Mostly Cloudy FEW036 BKN060 22.2 14.4 61% 76.2 1015.3
19 11:54 Vrbl 7 12.87 Mostly Cloudy SCT025 BKN030 BKN036 21.7 15 66% 76.25 1015.8
19 10:54 N 6 12.87 Overcast BKN016 OVC038 20.6 15 70% 76.25 1016.0
19 09:54 N 6 9.66 Overcast with Haze SCT011 BKN017 OVC035 18.9 15.6 81% 76.28 1016.3
19 08:54 N 7 6.44 Fog/Mist SCT012 OVC030 17.8 15.6 87% 76.28 1016.4
19 07:54 Calm 4.83 Fog/Mist OVC012 16.7 15 16.7 15.6 90% 76.25 1016.0
19 06:54 Calm 6.44 Fog/Mist SCT012 OVC020 16.7 14.4 86% 76.23 1015.6
19 05:54 SW 6 6.44 Fog/Mist FEW017 OVC050 16.1 14.4 90% 76.17 1014.9
19 04:54 S 6 6.44 Fog/Mist OVC009 16.1 15 93% 76.12 1014.5
19 03:54 E 6 9.66 Fog/Mist OVC014 16.1 14.4 90% 76.12 1014.4
19 02:54 E 6 6.44 Fog/Mist BKN012 OVC017 16.1 15 93% 76.12 1014.4
19 01:54 Calm 6.44 Fog/Mist BKN014 OVC024 16.1 15 17.2 16.1 93% 76.15 1014.6
18 23:54 Calm 8.05 Fog/Mist OVC023 16.1 15 93% 76.12 1014.4
18 22:54 E 7 9.66 Fog/Mist BKN024 OVC046 16.1 14.4 90% 76.15 1014.7
18 21:54 E 6 11.27 Overcast OVC014 16.7 14.4 86% 76.15 1014.7
18 20:54 E 7 11.27 Overcast SCT013 OVC021 16.7 15 90% 76.15 1014.5
18 19:54 E 6 9.66 Fog/Mist OVC018 17.2 15.6 18.9 17.2 90% 76.12 1014.3 0.03 0.1
18 18:54 Calm 3.22 Light Rain Fog/Mist FEW010 OVC018 17.8 16.1 90% 76.12 1014.3 0.03
18 17:54 Calm 12.87 Overcast FEW015 OVC020 18.3 15.6 84% 76.1 1013.9
18 16:54 Calm 12.87 Overcast FEW012 OVC024 18.9 15.6 81% 76.1 1013.9 0.05
18 15:54 SW 6 11.27 Overcast BKN009 BKN015 OVC020 18.3 15.6 84% 76.1 1014.1
18 14:54 Vrbl 6 9.66 Fog/Mist FEW007 BKN020 OVC025 18.3 16.1 87% 76.12 1014.4 0.05
18 13:54 Calm 6.44 Light Rain Fog/Mist BKN013 BKN020 OVC075 17.8 15.6 18.3 16.7 87% 76.15 1014.6 0.05 0.13
18 12:54 Calm 8.05 Light Rain FEW016 OVC028 18.3 15 81% 76.17 1014.9
Date Time (edt) Wind (kph) Vis. (km) Weather Sky Cond. Air Dwpt Max. Min. Relative Humidity Wind Chill (°C) Heat Index (°C) altimeter (cm) sea level (mb) 1 hr 3 hr 6 hr
6 hour
Temperature (ºC) Pressure Precipitation (cm)